Overview Statistics Trail Chart Weather Telemetry Raw packets
 

This is the latest recevied weather packets stored in our database for station/object NB9X. If no packets are shown the sender has not sent any weather packets the latest 10 day(s).

<< 84 85 86 87 88 89 90 >>
Time Temp. Humidity Pressure Rain* Wind** Luminosity Snow
1788037472 33.33° C 100% 1015.2 hPa 0 mm - - -
1788037172 34.44° C 100% 1015.1 hPa 0 mm - - -
1788036872 32.78° C 100% 1015.2 hPa 0 mm - - -
1788036572 33.33° C 100% 1015.3 hPa 0 mm - - -
1788036272 34.44° C 100% 1015.4 hPa 0 mm - - -
1788035972 33.89° C 100% 1015.3 hPa 0 mm - - -
1788035672 33.33° C 100% 1015.4 hPa 0 mm - - -
1788035372 32.78° C 100% 1015.4 hPa 0 mm - - -
1788035072 33.33° C 100% 1015.4 hPa 0 mm - - -
1788034772 33.89° C 100% 1015.5 hPa 0 mm - - -
1788034472 33.89° C 100% 1015.4 hPa 0 mm - - -
1788034172 33.89° C 100% 1015.3 hPa 0 mm - - -
1788033872 33.89° C 100% 1015.4 hPa 0 mm - - -
1788033572 33.89° C 100% 1015.4 hPa 0 mm - - -
1788033272 32.78° C 100% 1015.5 hPa 0 mm - - -
1788032972 32.22° C 100% 1015.6 hPa 0 mm - - -
1788032672 33.33° C 100% 1015.4 hPa 0 mm - - -
1788032372 33.33° C 100% 1015.4 hPa 0 mm - - -
1788032072 32.22° C 100% 1015.4 hPa 0 mm - - -
1788031772 31.11° C 100% 1015.4 hPa 0 mm - - -
1788031472 32.22° C 100% 1015.4 hPa 0 mm - - -
1788031172 31.67° C 100% 1015.5 hPa 0 mm - - -
1788030872 33.33° C 100% 1015.5 hPa 0 mm - - -
1788030572 34.44° C 100% 1015.4 hPa 0 mm - - -
1788030272 33.33° C 100% 1015.2 hPa 0 mm - - -

* Rain latest hour (hover to see other rain measurements)
** Current wind speed in m/s (hover to see current wind gust speed)